Valparaiso, IN

2:57 AM CST on December 14, 2017 (GMT -0600)
Porter County Municipal

Weather History for KVPZ - January, 2013

Change the Weather History Date:

Sunday, January 20, 2013

  Actual Average Record
Temperature  
Mean Temperature 25 °F 23 °F  
Max Temperature 34 °F 31 °F 59 °F (1999)
Min Temperature 15 °F 16 °F -4 °F (2008)
Degree Days  
Heating Degree Days 40 42  
Month to date heating degree days 730 831  
Since 1 July heating degree days 2915 3233  
Cooling Degree Days 0 0  
Month to date cooling degree days 0 0  
Year to date cooling degree days 0 0  
Moisture  
Dew Point 5 °F    
Average Humidity 53    
Maximum Humidity 62    
Minimum Humidity 44    
Precipitation  
Precipitation 0.00 in 0.05 in 0.39 in (2006)
Month to date precipitation 0.69 1.09  
Year to date precipitation 0.69 1.09  
Sea Level Pressure  
Sea Level Pressure 30.21 in    
Wind  
Wind Speed 12 mph (WNW)    
Max Wind Speed 37 mph    
Max Gust Speed 48 mph    
Visibility 10 miles    
Events      
T = Trace of Precipitation, MM = Missing Value Source: NWS Daily Summary

Daily Weather History Graph

Daily Weather History Graph

Search for Another Location

Airport or City:

Trip Planner

Search our weather history database for the weather conditions in past years. The results will help you decide how hot, cold, wet, or windy it might be!

Date:

Astronomy

Jan. 20, 2013 Rise Set
Actual Time 7:09 AM CST 4:49 PM CST
Civil Twilight 6:39 AM CST 5:19 PM CST
Nautical Twilight 6:05 AM CST 5:53 PM CST
Astronomical Twilight 5:32 AM CST 6:26 PM CST
Moon 11:50 AM CST (1/20) 1:40 AM CST (1/20)
Length of Visible Light 10h 40m
Length of Day
9h 40m
Waxing Gibbous, 66% of the Moon is Illuminated
Jan 20
Waxing Gibbous
Jan 26
Full
Feb 3
Last Quarter
Feb 10
New
Feb 17
First Quarter

Hourly Weather History & Observations

Time (CST) Temp. Windchill Dew Point Humidity Pressure Visibility Wind Dir Wind Speed Gust Speed Precip Events Conditions
12:53 AM 28.9 °F 14.3 °F 10.0 °F 45% 29.94 in 10.0 mi West 26.5 mph 39.1 mph N/A   Clear
1:53 AM 25.0 °F 10.9 °F 8.1 °F 49% 30.01 in 10.0 mi WNW 19.6 mph 33.4 mph N/A   Clear
2:53 AM 21.9 °F 5.1 °F 7.0 °F 53% 30.06 in 10.0 mi WNW 25.3 mph 29.9 mph N/A   Clear
3:53 AM 19.9 °F 5.2 °F 6.1 °F 55% 30.12 in 10.0 mi WNW 17.3 mph 25.3 mph N/A   Clear
4:53 AM 19.0 °F 6.8 °F 6.1 °F 57% 30.14 in 10.0 mi WNW 11.5 mph 21.9 mph N/A   Clear
5:53 AM 18.0 °F 3.6 °F 6.1 °F 60% 30.18 in 10.0 mi NW 15.0 mph 19.6 mph N/A   Clear
6:53 AM 16.0 °F 1.1 °F 5.0 °F 62% 30.22 in 10.0 mi WNW 15.0 mph - N/A   Mostly Cloudy
7:53 AM 16.0 °F 1.7 °F 3.9 °F 59% 30.26 in 10.0 mi West 13.8 mph - N/A   Overcast
8:29 AM 15.8 °F 2.1 °F 3.2 °F 58% 30.25 in 10.0 mi WNW 12.7 mph 19.6 mph N/A   Scattered Clouds
8:53 AM 17.1 °F 2.5 °F 3.9 °F 56% 30.29 in 10.0 mi WNW 15.0 mph - N/A   Clear
9:53 AM 18.0 °F 6.9 °F 5.0 °F 57% 30.30 in 10.0 mi NW 9.2 mph - N/A   Partly Cloudy
10:53 AM 19.0 °F 7.5 °F 5.0 °F 54% 30.30 in 10.0 mi West 10.4 mph 20.7 mph N/A   Clear
11:53 AM 21.0 °F 10.6 °F 5.0 °F 50% 30.27 in 10.0 mi West 9.2 mph - N/A   Clear
12:53 PM 21.0 °F 11.4 °F 3.9 °F 48% 30.27 in 10.0 mi WNW 8.1 mph - N/A   Clear
1:53 PM 23.0 °F 13.9 °F 5.0 °F 46% 30.26 in 10.0 mi WNW 8.1 mph - N/A   Mostly Cloudy
3:53 PM 21.9 °F 13.4 °F 3.0 °F 44% 30.26 in 10.0 mi WNW 6.9 mph - N/A   Overcast
4:53 PM 21.0 °F 11.4 °F 1.9 °F 44% 30.27 in 10.0 mi West 8.1 mph - N/A   Overcast
5:53 PM 19.9 °F 10.1 °F 5.0 °F 52% 30.27 in 10.0 mi West 8.1 mph - N/A   Overcast
6:53 PM 19.9 °F 7.3 °F 3.9 °F 50% 30.27 in 10.0 mi West 12.7 mph - N/A   Overcast
7:53 PM 19.0 °F 6.8 °F 3.9 °F 52% 30.27 in 10.0 mi West 11.5 mph - N/A   Overcast
8:53 PM 18.0 °F 6.1 °F 3.0 °F 52% 30.25 in 10.0 mi West 10.4 mph - N/A   Overcast
9:53 PM 18.0 °F 6.9 °F 5.0 °F 57% 30.24 in 10.0 mi West 9.2 mph - N/A   Overcast
10:53 PM 18.0 °F 6.1 °F 3.0 °F 52% 30.23 in 10.0 mi West 10.4 mph - N/A   Overcast
11:53 PM 17.1 °F 6.6 °F 3.0 °F 54% 30.22 in 10.0 mi WNW 8.1 mph - N/A   Overcast